Location: Unspecified
(29.9680°N, 0.0000°E)
Time: 09:31:13
(UTC+00:00)

A-11 Canister half - Pass Details

Date: 26 June 2019
Orbit: 1526 x 1683 km, 47.3° (Epoch: 17 July)

Event Time Altitude Azimuth Distance (km) Brightness Sun altitude
Rises 01:12:57 0° 205° (SSW) 4,841 - -34.1°
Reaches altitude 10° 01:16:17 10° 199° (SSW) 3,834 - -33.8°
Exits shadow 01:25:03 45° 135° (SE) 2,057 9.4 -33.1°
Maximum altitude 01:25:21 45° 131° (SE) 2,052 9.4 -33.1°
Drops below altitude 10° 01:34:08 10° 62° (ENE) 3,733 11.6 -32.3°
Sets 01:37:19 0° 57° (ENE) 4,703 12.4 -32.0°
